User: anonymous   Login
Location: Bothwell
(42.3833°S, 147.0000°E)
Time: 00:13:23
(UTC+10:00)
Language:

AO-91 - Orbit

View from above orbital plane
View from above orbital plane
View from above satellite
View from above satellite

Ground track
Ground track

The orbit data is extracted from the following two-line orbital elements,

1 43017U 17073E   22274.12336802  .00004447  00000-0  33407-3 0  9994
2 43017  97.6585 163.9661 0245678 201.2561 157.8309 14.82101543262763
Epoch (UTC): 01 October 2022 02:57:38
Eccentricity: 0.0245678
inclination: 97.6585°
perigee height: 451 km
apogee height: 794 km
right ascension of ascending node: 163.9661°
argument of perigee: 201.2561°
revolutions per day: 14.82101543
mean anomaly at epoch: 157.8309°
orbit number at epoch: 26276

The dashed part of the orbit path shows where the satellite is in the earth's shadow,  

DLR